sat.trackr.live / text

‹ back to catalog

6GSTARLAB

NORAD 66683 · 2025-276T

PAYLOAD ACTIVE UNKNOWN

§ Identity

Operator
Country
SPN
Launch date
2025-11-28
Launch site
AFWTR
Launch vehicle
Mass (kg)
RCS (m²)

External: N2YO · Heavens-Above · Gunter

§ Orbital elements

Epoch: 2026-09-20T03:19:03.968832Z

Period
94.81 min
Inclination
97.4164°
Eccentricity
0.0006573
Mean motion
15.18837838 rev/d
Perigee alt
504.8 km
Apogee alt
513.9 km
Semi-major
6,887.5 km
B*
8.9378e-5
RAAN
334.7864°
Arg perigee
37.4784°
Mean anomaly
322.6908°
Rev number
4,481

§ Raw data

6GSTARLAB1 66683U 25276T   26263.13824038  .00001795  00000+0  89378-4 0  99992 66683  97.4164 334.7864 0006573  37.4784 322.6908 15.18837838 44810

JSON: /api/v1/satellites/66683 · /tle

For live sub-satellite position, see the globe view (requires WebGL).

§ Visibility from observer

Set your observer location to see the next 7 days of passes ≥ 10°. The values pass through the URL so the page stays shareable.

No JS? Fill the form by hand. The geolocation button needs JavaScript.

§ Radio — SatNOGS DB

ModeDescriptionDownlinkUplink
LoRa LoRa Transmitter 500KHz 864.970 MHz

1 transmitter · refreshed weekly from db.satnogs.org